Weather History for KOJC - February, 2013

Change the Weather History Date:

Tuesday, February 5, 2013

  Actual Average Record
Temperature  
Mean Temperature 41 °F 32 °F  
Max Temperature 59 °F 42 °F - ()
Min Temperature 22 °F 23 °F - ()
Degree Days  
Heating Degree Days 24 33  
Month to date heating degree days 158 166  
Since 1 July heating degree days 2921 3214  
Cooling Degree Days 0 0  
Month to date cooling degree days 0 0  
Year to date cooling degree days 1 0  
Moisture  
Dew Point 26 °F    
Average Humidity 66    
Maximum Humidity 96    
Minimum Humidity 35    
Precipitation  
Precipitation 0.00 in 0.05 in - ()
Month to date precipitation 0.00 0.25  
Year to date precipitation 1.79 1.37  
Sea Level Pressure  
Sea Level Pressure 30.00 in    
Wind  
Wind Speed 6 mph (West)    
Max Wind Speed 15 mph    
Max Gust Speed 21 mph    
Visibility 8 miles    
Events      
T = Trace of Precipitation, MM = Missing Value Source: NWS Daily Summary

Daily Weather History Graph

Daily Weather History Graph

Search for Another Location

Airport or City:

Trip Planner

Search our weather history database for the weather conditions in past years. The results will help you decide how hot, cold, wet, or windy it might be!

Date:

Astronomy

Feb. 05, 2013 Rise Set
Actual Time 7:21 AM CST 5:45 PM CST
Civil Twilight 6:53 AM CST 6:13 PM CST
Nautical Twilight 6:21 AM CST 6:44 PM CST
Astronomical Twilight 5:50 AM CST 7:16 PM CST
Moon 3:02 AM CST (2/5) 1:04 PM CST (2/5)
Length of Visible Light 11h 20m
Length of Day
10h 24m
Waning Crescent, 26% of the Moon is Illuminated
Feb 5
Waning Crescent
Feb 10
New
Feb 17
First Quarter
Feb 25
Full
Mar 4
Last Quarter

Hourly Weather History & Observations

Time (CST) Temp. Windchill Dew Point Humidity Pressure Visibility Wind Dir Wind Speed Gust Speed Precip Events Conditions
12:53 AM 24.1 °F 19.7 °F 21.9 °F 91% 29.95 in 6.0 mi SE 3.5 mph - N/A   Clear
1:53 AM 23.0 °F - 21.0 °F 92% 29.95 in 5.0 mi Calm Calm - N/A   Clear
2:53 AM 21.9 °F 15.7 °F 19.9 °F 92% 29.94 in 5.0 mi South 4.6 mph - N/A   Clear
3:53 AM 24.1 °F 15.2 °F 21.9 °F 91% 29.94 in 6.0 mi South 8.1 mph - N/A   Clear
4:53 AM 24.1 °F 18.2 °F 21.9 °F 91% 29.93 in 5.0 mi South 4.6 mph - N/A   Clear
5:53 AM 24.1 °F 15.2 °F 21.9 °F 91% 29.92 in 6.0 mi SSW 8.1 mph - N/A   Clear
6:53 AM 27.0 °F 21.6 °F 25.0 °F 92% 29.94 in 7.0 mi SW 4.6 mph - N/A   Clear
7:53 AM 27.0 °F 19.5 °F 25.0 °F 92% 29.98 in 5.0 mi West 6.9 mph - N/A   Clear
8:53 AM 30.0 °F 21.7 °F 27.0 °F 88% 29.99 in 6.0 mi WSW 9.2 mph - N/A   Clear
9:53 AM 37.9 °F 31.5 °F 30.0 °F 73% 29.99 in 8.0 mi West 9.2 mph - N/A   Clear
10:53 AM 45.0 °F 40.6 °F 30.9 °F 58% 29.99 in 10.0 mi West 8.1 mph - N/A   Clear
11:53 AM 50.0 °F - 30.9 °F 48% 30.00 in 10.0 mi West 8.1 mph - N/A   Clear
12:53 PM 53.1 °F - 30.0 °F 41% 29.99 in 10.0 mi NW 8.1 mph - N/A   Clear
1:53 PM 55.9 °F - 30.9 °F 39% 29.99 in 10.0 mi North 11.5 mph - N/A   Clear
2:53 PM 57.0 °F - 30.9 °F 37% 29.99 in 10.0 mi NW 11.5 mph - N/A   Clear
3:53 PM 57.0 °F - 30.0 °F 36% 30.00 in 10.0 mi NNW 10.4 mph - N/A   Clear
4:53 PM 55.0 °F - 28.0 °F 35% 30.01 in 10.0 mi North 8.1 mph - N/A   Clear
5:53 PM 50.0 °F - 28.0 °F 43% 30.02 in 10.0 mi North 6.9 mph - N/A   Clear
6:53 PM 46.9 °F - 27.0 °F 46% 30.04 in 10.0 mi NNE 3.5 mph - N/A   Clear
7:53 PM 45.0 °F 42.6 °F 27.0 °F 49% 30.07 in 10.0 mi North 4.6 mph - N/A   Clear
8:53 PM 44.1 °F - 25.0 °F 47% 30.09 in 10.0 mi Calm Calm - N/A   Clear
9:53 PM 42.1 °F - 25.0 °F 51% 30.09 in 10.0 mi Calm Calm - N/A   Clear
10:53 PM 35.1 °F - 26.1 °F 70% 30.10 in 10.0 mi Calm Calm - N/A   Clear
11:53 PM 37.0 °F 33.3 °F 25.0 °F 62% 30.10 in 10.0 mi East 4.6 mph - N/A   Clear